Retour au catalogue

STARLINK-30488

ActifCommunicationsVLEO
NORAD 57931·PAYLOAD·🇺🇸 United States

Lancé Sep 24, 2023 depuis Cape Canaveral Space Force Station

Loading…

Prochains Passages (prochaines 24 heures)

TLE

FraisSource: CelesTrak SupGP

Époque: Sep 14, 2026, 22:00 UTC

1 57931C 23147U   26257.91715278 -.00017725  00000+0 -64191-3 0  2578
2 57931  43.0035 340.0526 0001889 274.8178 196.6154 15.27590794    17

Suivez STARLINK-30488 en temps réel avec AllMySat

Download on the App Store